^^
Datos históricos de la estación: Murcia-Puente Tocinos
Diario Informe para Junio 2, 2019 Unidades:  Inglés    Métrico   Ambas
Diario Semanal Mensual Anual Configurable
  Máximo: Mínimo: Media:
Temperatura: 84 °F 60.6 °F 72 °F
Punto de rocio: 53.4 °F 38.7 °F 44.4 °F
Humedad: 61% 21% 40%
Velocidad viento: 9.7mph 0mph 5mph
Racha viento: 18.4mph - -
Viento- - ESE
Presión: 30.1 in 30 in -
Precipitación: 0 in    
Historical Graphs
 
 
Tabla de datos para Junio 2, 2019
Hora Temperatura Punto de rocio Presión Viento Velocidad viento Racha viento Humedad Intensidad lluvia(por hora) Nubes
00:04 69.1 °F 47.5 °F 30.1 in NE 4.3 mph 5.8 mph 46% 0 in CLR
00:09 68.9 °F 47.8 °F 30.1 in NE 4 mph 5.8 mph 47% 0 in CLR
00:14 68.7 °F 47.7 °F 30.1 in NE 4 mph 4.6 mph 47% 0 in CLR
00:19 68.5 °F 47.5 °F 30.1 in NE 3.1 mph 2.4 mph 47% 0 in CLR
00:24 68.4 °F 47.8 °F 30.1 in NE 3.1 mph 4.6 mph 48% 0 in CLR
00:29 68.2 °F 47.7 °F 30.1 in NE 2 mph   48% 0 in CLR
00:34 68 °F 47.7 °F 30.1 in NE 2 mph 2.3 mph 48% 0 in CLR
00:39 67.6 °F 47.1 °F 30.1 in NE 1.8 mph 2.3 mph 48% 0 in CLR
00:44 67.3 °F 47.5 °F 30.1 in NE 1.8 mph 3.1 mph 49% 0 in CLR
00:49 66.9 °F 47.1 °F 30.1 in NNE 2 mph 3.5 mph 49% 0 in CLR
00:54 66.6 °F 46.8 °F 30.1 in NE 2 mph 4.6 mph 49% 0 in CLR
00:59 66.4 °F 46.6 °F 30.1 in NNE 2.4 mph 4.6 mph 49% 0 in CLR
01:04 66.2 °F 46.9 °F 30.1 in ENE 2.4 mph 4.6 mph 50% 0 in CLR
01:09 66 °F 46.8 °F 30.1 in ENE 2.9 mph 4.6 mph 50% 0 in CLR
01:14 65.8 °F 47.1 °F 30.1 in ENE 2.9 mph 2.3 mph 51% 0 in CLR
01:19 65.8 °F 47.1 °F 30.1 in ENE 2.4 mph 2.3 mph 51% 0 in CLR
01:24 65.8 °F 47.1 °F 30.1 in ENE 2.4 mph 2.3 mph 51% 0 in CLR
01:29 65.8 °F 47.1 °F 30.1 in Calm     51% 0 in CLR
01:34 65.7 °F 47.5 °F 30.1 in Calm   2.4 mph 52% 0 in CLR
01:39 65.5 °F 47.5 °F 30.1 in North 1.4 mph   52% 0 in CLR
01:44 65.5 °F 47.8 °F 30.1 in North 1.4 mph   53% 0 in CLR
01:49 65.1 °F 47.7 °F 30.1 in Calm     53% 0 in CLR
01:54 65.1 °F 47.7 °F 30.1 in Calm     53% 0 in CLR
01:59 65.1 °F 47.7 °F 30.1 in Calm   2.3 mph 53% 0 in CLR
02:04 65.1 °F 48 °F 30.1 in Calm   2.3 mph 54% 0 in CLR
02:09 64.9 °F 47.8 °F 30.1 in North 1.4 mph 2.3 mph 54% 0 in CLR
02:14 64.9 °F 47.8 °F 30.1 in North 1.4 mph 2.9 mph 54% 0 in CLR
02:19 64.8 °F 47.7 °F 30.1 in North 1.8 mph 2.3 mph 54% 0 in CLR
02:24 64.8 °F 48.2 °F 30.1 in North 1.8 mph   55% 0 in CLR
02:29 64.6 °F 48 °F 30.1 in Calm     55% 0 in CLR
02:34 64.6 °F 48 °F 30.1 in Calm     55% 0 in CLR
02:39 64.4 °F 47.8 °F 30.1 in Calm     55% 0 in CLR
02:44 64.2 °F 47.7 °F 30.1 in Calm     55% 0 in CLR
02:49 64.2 °F 48.2 °F 30.1 in Calm     56% 0 in CLR
02:54 64.2 °F 47.1 °F 30.1 in Calm     54% 0 in CLR
02:59 64 °F 47.1 °F 30.1 in Calm   2.3 mph 54% 0 in CLR
03:04 64 °F 46.6 °F 30.1 in Calm   2.3 mph 53% 0 in CLR
03:09 64 °F 46.6 °F 30.1 in North 1.4 mph   53% 0 in CLR
03:14 63.9 °F 46.9 °F 30.1 in North 1.4 mph   54% 0 in CLR
03:19 64 °F 47.1 °F 30.1 in Calm     54% 0 in CLR
03:24 64 °F 47.5 °F 30.1 in Calm     55% 0 in CLR
03:29 64 °F 47.5 °F 30.1 in Calm     55% 0 in CLR
03:34 63.9 °F 47.5 °F 30.1 in Calm     55% 0 in CLR
03:39 63.9 °F 47.5 °F 30.1 in Calm     55% 0 in CLR
03:44 63.9 °F 46.4 °F 30.1 in Calm   2.3 mph 53% 0 in CLR
03:49 63.7 °F 45.7 °F 30.1 in Calm   2.3 mph 52% 0 in CLR
03:54 63.7 °F 45.1 °F 30.1 in Calm   3.5 mph 51% 0 in CLR
03:59 63.7 °F 45.7 °F 30.1 in ESE 2 mph 3.5 mph 52% 0 in CLR
04:04 63.5 °F 45.7 °F 30.1 in SSE 2 mph 4 mph 52% 0 in CLR
04:09 63.3 °F 45.3 °F 30.1 in SE 2.4 mph 4.7 mph 52% 0 in CLR
04:14 63.1 °F 44.8 °F 30.1 in South 2.4 mph 4.6 mph 51% 0 in CLR
04:19 63.1 °F 44.8 °F 30.1 in SSW 3.6 mph 5.8 mph 51% 0 in CLR
04:24 63.1 °F 44.8 °F 30.1 in SSW 3.6 mph 4.6 mph 51% 0 in CLR
04:29 63.1 °F 44.2 °F 30.1 in SSW 3.6 mph 4.6 mph 50% 0 in CLR
04:34 63.3 °F 44.4 °F 30.1 in SSW 3.6 mph 6.2 mph 50% 0 in CLR
04:39 63.3 °F 43.9 °F 30.1 in SW 4 mph 5.8 mph 49% 0 in CLR
04:44 63.3 °F 43.9 °F 30.1 in WSW 4 mph 4.6 mph 49% 0 in CLR
04:49 63.1 °F 43.7 °F 30.1 in WSW 3.6 mph 4.6 mph 49% 0 in CLR
04:54 63.1 °F 43.7 °F 30.1 in SW 3.6 mph 6.9 mph 49% 0 in CLR
04:59 63 °F 43.5 °F 30.1 in SSW 3.6 mph 5.8 mph 49% 0 in CLR
05:04 62.8 °F 43.9 °F 30.1 in SW 3.6 mph 5.8 mph 50% 0 in CLR
05:09 62.8 °F 43.9 °F 30.1 in SW 3.6 mph 6.9 mph 50% 0 in CLR
05:14 62.8 °F 43.9 °F 30.1 in SW 3.6 mph 4.7 mph 50% 0 in CLR
05:19 62.8 °F 43.9 °F 30.1 in SW 4.3 mph 5.8 mph 50% 0 in CLR
05:24 62.8 °F 44.4 °F 30.1 in WSW 4.3 mph 3.5 mph 51% 0 in CLR
05:29 62.8 °F 44.4 °F 30.1 in SW 3.1 mph 4.6 mph 51% 0 in CLR
05:34 62.8 °F 44.4 °F 30.1 in SW 3.1 mph 4.6 mph 51% 0 in CLR
05:39 62.6 °F 44.2 °F 30.1 in SSW 2.9 mph 3.5 mph 51% 0 in CLR
05:44 62.4 °F 44.1 °F 30.1 in SSW 2.9 mph 4.6 mph 51% 0 in CLR
05:49 62.4 °F 44.6 °F 30.1 in South 2.9 mph 4.6 mph 52% 0 in CLR
05:54 62.1 °F 44.2 °F 30.1 in South 2.9 mph 4.3 mph 52% 0 in CLR
05:59 61.9 °F 44.1 °F 30.1 in SSW 3.6 mph 4.6 mph 52% 0 in CLR
06:04 61.9 °F 44.1 °F 30.1 in SSW 3.6 mph 5.8 mph 52% 0 in CLR
06:09 61.9 °F 44.1 °F 30.1 in SSW 3.1 mph 4.6 mph 52% 0 in CLR
06:14 62.1 °F 43.7 °F 30.1 in SW 3.1 mph 4.6 mph 51% 0 in CLR
06:19 62.1 °F 43.2 °F 30.1 in SW 3.6 mph 4.6 mph 50% 0 in CLR
06:24 62.1 °F 43.2 °F 30.1 in South 3.6 mph 5.2 mph 50% 0 in CLR
06:29 62.1 °F 43.2 °F 30.1 in SSW 3.6 mph 5.2 mph 50% 0 in CLR
06:34 62.1 °F 42.6 °F 30.1 in SW 3.6 mph 5.8 mph 49% 0 in CLR
06:39 62.1 °F 42.6 °F 30.1 in SSW 3.1 mph 4.6 mph 49% 0 in CLR
06:44 62.1 °F 43.2 °F 30.1 in SSW 3.1 mph 3.5 mph 50% 0 in CLR
06:49 61.9 °F 43.5 °F 30.1 in South 2.4 mph 4.6 mph 51% 0 in CLR
06:54 61.5 °F 44.2 °F 30.1 in South 2.4 mph 4.6 mph 53% 0 in CLR
06:59 61.2 °F 44.4 °F 30.1 in South 2.9 mph 4 mph 54% 0 in CLR
07:04 60.8 °F 44.1 °F 30.1 in South 2.9 mph 4.6 mph 54% 0 in CLR
07:09 60.6 °F 44.4 °F 30.1 in South 2.9 mph 3.5 mph 55% 0 in CLR
07:14 60.6 °F 44.4 °F 30.1 in South 2.9 mph 3.5 mph 55% 0 in CLR
07:19 60.6 °F 43.3 °F 30.1 in SSW 2.4 mph 4.6 mph 53% 0 in CLR
07:24 61 °F 43.2 °F 30.1 in WSW 2.4 mph 4.6 mph 52% 0 in CLR
07:29 61.3 °F 43 °F 30.1 in SW 2.9 mph 5.8 mph 51% 0 in CLR
07:34 61.7 °F 43 °F 30.1 in SW 2.9 mph 4.6 mph 50% 0 in CLR
07:39 61.9 °F 42.4 °F 30.1 in SW 3.6 mph 5.8 mph 49% 0 in CLR
07:44 62.2 °F 42.8 °F 30.1 in SSW 3.6 mph 5.8 mph 49% 0 in CLR
07:49 62.4 °F 44.1 °F 30.1 in SSW 3.6 mph 3.5 mph 51% 0 in CLR
07:54 62.8 °F 43.9 °F 30.1 in SW 3.6 mph 4.6 mph 50% 0 in CLR
07:59 63 °F 43 °F 30.1 in West 2.9 mph 6.9 mph 48% 0 in CLR
08:04 63.1 °F 42.6 °F 30.1 in SW 2.9 mph 5.8 mph 47% 0 in CLR
08:09 63.1 °F 42.6 °F 30.1 in WSW 4.7 mph 6.9 mph 47% 0 in CLR
08:14 63.3 °F 43.9 °F 30.1 in SW 4.7 mph 4.6 mph 49% 0 in CLR
08:19 63.7 °F 45.1 °F 30.1 in SSE 3.6 mph 4.6 mph 51% 0 in CLR
08:24 63.5 °F 45 °F 30.1 in SSW 3.6 mph 4.6 mph 51% 0 in CLR
08:29 63.7 °F 43.5 °F 30.1 in SW 2.9 mph 6.2 mph 48% 0 in CLR
08:34 63.9 °F 43.2 °F 30.1 in WSW 2.9 mph 5.8 mph 47% 0 in CLR
08:39 64.2 °F 43 °F 30.1 in WSW 4.3 mph 6.9 mph 46% 0 in CLR
08:44 64.2 °F 43.5 °F 30.1 in WSW 4.3 mph 5.8 mph 47% 0 in CLR
08:49 64.4 °F 43.7 °F 30.1 in SW 4.7 mph 5.8 mph 47% 0 in CLR
08:54 64.8 °F 44.1 °F 30.1 in South 4.7 mph 4.6 mph 47% 0 in CLR
08:59 64.8 °F 43.5 °F 30.1 in SSW 4 mph 7.4 mph 46% 0 in CLR
09:04 64.9 °F 43.7 °F 30.1 in SSW 4 mph 5.8 mph 46% 0 in CLR
09:09 65.3 °F 44.1 °F 30.1 in South 4 mph 4.7 mph 46% 0 in CLR
09:14 65.7 °F 44.2 °F 30.1 in SW 4 mph 6.9 mph 46% 0 in CLR
09:19 66 °F 44.1 °F 30.1 in South 4 mph 5.4 mph 45% 0 in CLR
09:24 66.4 °F 43.9 °F 30.1 in South 4 mph 6.9 mph 44% 0 in CLR
09:29 66.6 °F 43.3 °F 30.1 in South 4.7 mph 5.8 mph 43% 0 in CLR
09:34 66.9 °F 43.2 °F 30.1 in South 4.7 mph 8.1 mph 42% 0 in CLR
09:39 66.9 °F 43.2 °F 30.1 in WSW 5.2 mph 8.1 mph 42% 0 in CLR
09:44 67.3 °F 43.3 °F 30.1 in SSW 5.2 mph 5.8 mph 42% 0 in CLR
09:49 67.5 °F 43.5 °F 30.1 in SSW 5.2 mph 5.8 mph 42% 0 in CLR
09:54 67.6 °F 43.2 °F 30.1 in SSW 5.2 mph 6.9 mph 41% 0 in CLR
09:59 68.2 °F 43 °F 30.1 in SSW 4.7 mph 5.8 mph 40% 0 in CLR
10:04 68.5 °F 43.2 °F 30.1 in South 4.7 mph 5.8 mph 40% 0 in CLR
10:09 69.1 °F 43.2 °F 30.1 in SW 4.3 mph 6.9 mph 39% 0 in CLR
10:14 69.3 °F 42.6 °F 30.1 in WSW 4.3 mph 5.8 mph 38% 0 in CLR
10:19 69.6 °F 43 °F 30.1 in SW 3.6 mph 5.9 mph 38% 0 in CLR
10:24 70.2 °F 43.3 °F 30.1 in SW 3.6 mph 4.6 mph 38% 0 in CLR
10:29 70.9 °F 43.3 °F 30.1 in WNW 3.1 mph 5.2 mph 37% 0 in CLR
10:34 71.2 °F 43.5 °F 30.1 in WSW 3.1 mph 2.3 mph 37% 0 in CLR
10:39 71.4 °F 43.2 °F 30.1 in SW 2.9 mph 5.8 mph 36% 0 in CLR
10:42 71.8 °F 43.3 °F 30.1 in SW 2.9 mph 2.3 mph 36% 0 in CLR
12:29 78.1 °F 39.4 °F 30.1 in NE 5.4 mph 9.2 mph 25% 0 in CLR
12:34 79 °F 39 °F 30.1 in NE 5.4 mph 11.8 mph 24% 0 in CLR
12:39 78.6 °F 38.8 °F 30.1 in East 6.4 mph 11.5 mph 24% 0 in CLR
12:44 78.4 °F 38.7 °F 30.1 in North 6.4 mph 8.1 mph 24% 0 in CLR
12:49 79 °F 40.1 °F 30.1 in North 5.4 mph 6.2 mph 25% 0 in CLR
12:54 79.3 °F 39.4 °F 30.1 in NNE 5.4 mph 8.1 mph 24% 0 in CLR
12:59 79.9 °F 38.8 °F 30.1 in NNE 4 mph 11.4 mph 23% 0 in CLR
13:05 79.9 °F 38.8 °F 30.1 in NE 5 mph 12 mph 23% 0 in CLR
13:09 80.1 °F 39.9 °F 30.1 in NE 5.2 mph 6.9 mph 24% 0 in CLR
13:14 80.4 °F 39.2 °F 30.1 in NE 5.2 mph 9.2 mph 23% 0 in CLR
13:19 80.2 °F 40.3 °F 30.1 in ENE 5.4 mph 5.4 mph 24% 0 in CLR
13:24 80.4 °F 40.3 °F 30.1 in ESE 5.4 mph 11.5 mph 24% 0 in CLR
13:29 80.8 °F 39.6 °F 30.1 in North 6.2 mph 10.4 mph 23% 0 in CLR
13:34 81 °F 39.7 °F 30.1 in NNW 6.2 mph 10.7 mph 23% 0 in CLR
13:39 80.8 °F 39.6 °F 30.1 in NNE 7.6 mph 9.2 mph 23% 0 in CLR
13:44 81 °F 39.7 °F 30.1 in NE 7.6 mph 8.1 mph 23% 0 in CLR
13:49 81.1 °F 39.7 °F 30.1 in North 5.4 mph 9.2 mph 23% 0 in CLR
13:54 81.3 °F 39.9 °F 30.1 in NNE 5.4 mph 10.4 mph 23% 0 in CLR
13:59 81.7 °F 40.3 °F 30.1 in WSW 5.4 mph 12.7 mph 23% 0 in CLR
14:04 81.9 °F 39.4 °F 30 in NNW 5.4 mph 11.5 mph 22% 0 in CLR
14:09 82 °F 40.6 °F 30 in NE 6.2 mph 13.8 mph 23% 0 in CLR
14:14 82.4 °F 39.7 °F 30 in ENE 6.2 mph 9.2 mph 22% 0 in CLR
14:19 82.8 °F 39.9 °F 30 in NE 6.2 mph 11.2 mph 22% 0 in CLR
14:24 82.8 °F 39.9 °F 30 in NE 6.2 mph 13.8 mph 22% 0 in CLR
14:29 82.6 °F 39.9 °F 30 in NNW 6.9 mph 9.2 mph 22% 0 in CLR
14:34 82.9 °F 40.3 °F 30 in NNW 6.9 mph 10.4 mph 22% 0 in CLR
14:39 83.3 °F 40.5 °F 30 in ESE 5.2 mph 5.8 mph 22% 0 in CLR
14:44 83.5 °F 40.6 °F 30 in NE 5.2 mph 13.8 mph 22% 0 in CLR
14:49 82.9 °F 39 °F 30 in ENE 6.2 mph 11.2 mph 21% 0 in CLR
14:54 83.1 °F 40.3 °F 30 in NW 6.2 mph 8.1 mph 22% 0 in CLR
14:59 83.5 °F 39.4 °F 30 in ESE 6.2 mph 6.9 mph 21% 0 in CLR
15:04 83.1 °F 39 °F 30 in WNW 6.2 mph 10.4 mph 21% 0 in CLR
15:09 83.3 °F 39.4 °F 30 in NE 7.6 mph 12.7 mph 21% 0 in CLR
15:14 83.5 °F 40.6 °F 30 in ESE 7.6 mph 12.5 mph 22% 0 in CLR
15:19 83.1 °F 40.3 °F 30 in ESE 8.7 mph 10.4 mph 22% 0 in CLR
15:24 83.1 °F 40.3 °F 30 in NNE 8.7 mph 16.1 mph 22% 0 in CLR
15:29 83.1 °F 40.3 °F 30 in NE 8.5 mph 16.1 mph 22% 0 in CLR
15:34 83.3 °F 39.4 °F 30 in SE 8.5 mph 10.4 mph 21% 0 in CLR
15:39 83.5 °F 39.4 °F 30 in ENE 8.5 mph 12.7 mph 21% 0 in CLR
15:44 83.1 °F 39 °F 30 in NE 8.5 mph 14 mph 21% 0 in CLR
15:49 82.9 °F 39 °F 30 in NNE 8.5 mph 8.1 mph 21% 0 in CLR
15:54 83.3 °F 39.4 °F 30 in ENE 8.5 mph 11.5 mph 21% 0 in CLR
15:59 83.3 °F 39.4 °F 30 in NE 8.1 mph 10.4 mph 21% 0 in CLR
16:04 83.5 °F 39.4 °F 30 in NE 8.1 mph 11.4 mph 21% 0 in CLR
16:09 83.7 °F 39.6 °F 30 in NNE 6.4 mph 10.7 mph 21% 0 in CLR
16:14 83.7 °F 39.6 °F 30 in North 6.4 mph 9.2 mph 21% 0 in CLR
16:19 83.7 °F 39.6 °F 30 in ENE 6.9 mph 10.4 mph 21% 0 in CLR
16:24 83.5 °F 40.6 °F 30 in ENE 6.9 mph 16.1 mph 22% 0 in CLR
16:29 83.7 °F 40.8 °F 30 in ENE 6.4 mph 9.2 mph 22% 0 in CLR
16:34 83.8 °F 39.7 °F 30 in NE 6.4 mph 10.4 mph 21% 0 in CLR
16:39 84 °F 41.2 °F 30 in ENE 6.9 mph 12.7 mph 22% 0 in CLR
16:44 84 °F 41.2 °F 30 in South 6.9 mph 9.2 mph 22% 0 in CLR
16:49 84 °F 41.2 °F 30 in NE 6.9 mph 13.8 mph 22% 0 in CLR
16:54 84 °F 41.2 °F 30 in ENE 6.9 mph 8.1 mph 22% 0 in CLR
16:59 83.7 °F 41.9 °F 30 in NNE 7.6 mph 18.4 mph 23% 0 in CLR
17:04 83.1 °F 40.3 °F 30 in NE 7.6 mph 12.7 mph 22% 0 in CLR
17:09 82.9 °F 41.4 °F 30 in East 9.7 mph 14.5 mph 23% 0 in CLR
17:14 82.9 °F 41.4 °F 30 in ENE 9.7 mph 15 mph 23% 0 in CLR
17:19 83.1 °F 41.5 °F 30 in NNE 9.7 mph 11.5 mph 23% 0 in CLR
17:24 83.3 °F 40.5 °F 30 in ENE 9.7 mph 12.7 mph 22% 0 in CLR
17:29 83.1 °F 41.5 °F 30 in NNE 7.6 mph 10.7 mph 23% 0 in CLR
17:34 83.5 °F 41.7 °F 30 in NE 7.6 mph 12.7 mph 23% 0 in CLR
17:39 83.1 °F 41.5 °F 30 in NNE 8.1 mph 16.1 mph 23% 0 in CLR
17:44 82.9 °F 41.4 °F 30 in ENE 8.1 mph 12.7 mph 23% 0 in CLR
17:49 82.9 °F 42.4 °F 30 in ENE 9.7 mph 12.7 mph 24% 0 in CLR
17:54 82.8 °F 41.2 °F 30 in ESE 9.7 mph 11.5 mph 23% 0 in CLR
17:59 82.9 °F 42.4 °F 30 in ENE 8.1 mph 13.8 mph 24% 0 in CLR
18:04 82.9 °F 42.4 °F 30 in ENE 8.1 mph 17.3 mph 24% 0 in CLR
18:09 82.9 °F 42.4 °F 30 in NE 7.6 mph 12.3 mph 24% 0 in CLR
18:14 82.6 °F 42.1 °F 30 in East 7.6 mph 11.2 mph 24% 0 in CLR
18:19 82.6 °F 42.1 °F 30 in NE 8.1 mph 13.5 mph 24% 0 in CLR
18:24 82.4 °F 42.1 °F 30 in NE 8.1 mph 15 mph 24% 0 in CLR
18:29 82.2 °F 41.7 °F 30 in NNE 8.5 mph 11.5 mph 24% 0 in CLR
18:34 82.2 °F 41.7 °F 30 in East 8.5 mph 9.2 mph 24% 0 in CLR
18:39 82.2 °F 43 °F 30 in NE 7.4 mph 11.8 mph 25% 0 in CLR
18:44 81.9 °F 42.6 °F 30 in NNE 7.4 mph 10.4 mph 25% 0 in CLR
18:49 81.7 °F 42.4 °F 30 in NE 9.2 mph 16.1 mph 25% 0 in CLR
18:54 81.5 °F 43.3 °F 30 in NNE 9.2 mph 9.2 mph 26% 0 in CLR
18:59 81.7 °F 44.4 °F 30 in East 8.5 mph 10.4 mph 27% 0 in CLR
19:04 81.7 °F 44.4 °F 30 in NNE 8.5 mph 12.7 mph 27% 0 in CLR
19:09 81.3 °F 44.1 °F 30 in North 7.4 mph 12.7 mph 27% 0 in CLR
19:14 81.1 °F 44.1 °F 30 in NNE 7.4 mph 12.7 mph 27% 0 in CLR
19:19 81 °F 44.8 °F 30 in NE 8.1 mph 16.1 mph 28% 0 in CLR
19:24 80.8 °F 44.6 °F 30 in North 8.1 mph 10.4 mph 28% 0 in CLR
19:29 80.4 °F 45.1 °F 30 in NE 8.7 mph 13.8 mph 29% 0 in CLR
19:34 80.1 °F 45.9 °F 30 in NE 8.7 mph 10.4 mph 30% 0 in CLR
19:39 80.1 °F 45.9 °F 30 in ENE 8.5 mph 11.5 mph 30% 0 in CLR
19:44 79.9 °F 45.7 °F 30 in NE 8.5 mph 11.5 mph 30% 0 in CLR
19:49 79.5 °F 45.3 °F 30 in NE 8.1 mph 11.5 mph 30% 0 in CLR
19:54 79.2 °F 45 °F 30 in ENE 8.1 mph 12.7 mph 30% 0 in CLR
19:59 79 °F 45 °F 30 in NNE 9.7 mph 11.5 mph 30% 0 in CLR
20:04 78.8 °F 43.9 °F 30 in NNE 9.7 mph 12.7 mph 29% 0 in CLR
20:09 78.6 °F 42.8 °F 30 in ENE 8.1 mph 15 mph 28% 0 in CLR
20:14 78.4 °F 42.6 °F 30 in NNE 8.1 mph 15 mph 28% 0 in CLR
20:19 78.3 °F 42.4 °F 30 in North 9.7 mph 11.5 mph 28% 0 in CLR
20:24 78.1 °F 43.2 °F 30 in NE 9.7 mph 12.7 mph 29% 0 in CLR
20:29 77.9 °F 43.2 °F 30 in NE 8.1 mph 13.8 mph 29% 0 in CLR
20:34 77.7 °F 43 °F 30 in ENE 8.1 mph 11.5 mph 29% 0 in CLR
20:39 77.4 °F 43.5 °F 30 in NE 8.7 mph 12.7 mph 30% 0 in CLR
20:44 77.2 °F 43.3 °F 30 in ENE 8.7 mph 11.5 mph 30% 0 in CLR
20:49 77 °F 43.2 °F 30 in NNE 8.1 mph 13.8 mph 30% 0 in CLR
20:54 76.8 °F 43 °F 30 in NE 8.1 mph 10.4 mph 30% 0 in CLR
20:59 76.6 °F 43.7 °F 30 in NE 7.6 mph 9.2 mph 31% 0 in CLR
21:04 76.3 °F 45.1 °F 30 in NE 7.6 mph 9.2 mph 33% 0 in CLR
21:09 75.7 °F 45.3 °F 30 in NNE 6.4 mph 9.2 mph 34% 0 in CLR
21:14 75.2 °F 45.7 °F 30 in NE 6.4 mph 9.2 mph 35% 0 in CLR
21:19 74.8 °F 46 °F 30 in NE 6.9 mph 10.4 mph 36% 0 in CLR
21:24 74.5 °F 45.9 °F 30 in NE 6.9 mph 9.2 mph 36% 0 in CLR
21:29 74.1 °F 46.2 °F 30 in ENE 6.9 mph 9.2 mph 37% 0 in CLR
21:34 73.9 °F 46.8 °F 30 in NE 6.9 mph 6.9 mph 38% 0 in CLR
21:39 73.8 °F 47.3 °F 30 in NE 5.4 mph 10 mph 39% 0 in CLR
21:44 73.2 °F 47.5 °F 30 in NNE 5.4 mph 9.2 mph 40% 0 in CLR
21:49 73 °F 47.8 °F 30 in NNE 6.4 mph 8.1 mph 41% 0 in CLR
21:54 72.7 °F 48.9 °F 30 in NE 6.4 mph 11.5 mph 43% 0 in CLR
21:59 72.3 °F 50.4 °F 30 in NNE 6.4 mph 8.1 mph 46% 0 in CLR
22:04 72 °F 51.8 °F 30 in NE 6.4 mph 7.4 mph 49% 0 in CLR
22:09 71.6 °F 52.5 °F 30 in North 5.9 mph 8.1 mph 51% 0 in CLR
22:14 71.2 °F 52.7 °F 30 in NNE 5.9 mph 9.2 mph 52% 0 in CLR
22:19 71.1 °F 53.1 °F 30 in ENE 6.2 mph 9.2 mph 53% 0 in CLR
22:24 70.7 °F 52.7 °F 30 in NNE 6.2 mph 9.2 mph 53% 0 in CLR
22:29 70.5 °F 53.1 °F 30 in NE 6.9 mph 10.4 mph 54% 0 in CLR
22:34 70.3 °F 52.9 °F 30 in NE 6.9 mph 6.9 mph 54% 0 in CLR
22:39 70.2 °F 52.7 °F 30 in NNE 5.4 mph 11.5 mph 54% 0 in CLR
22:44 70 °F 52.5 °F 30 in NNE 5.4 mph 9.2 mph 54% 0 in CLR
22:49 69.8 °F 52.3 °F 30 in NE 5.9 mph 6.9 mph 54% 0 in CLR
22:54 69.6 °F 52.2 °F 30 in NNE 5.9 mph 5.2 mph 54% 0 in CLR
22:59 69.6 °F 52.2 °F 30 in ENE 4.3 mph 8.1 mph 54% 0 in CLR
23:04 69.4 °F 52.5 °F 30.1 in NNE 4.3 mph 9.2 mph 55% 0 in CLR
23:09 69.3 °F 52.9 °F 30.1 in NE 5.4 mph 9.2 mph 56% 0 in CLR
23:14 69.1 °F 53.2 °F 30.1 in NNE 5.4 mph 6.9 mph 57% 0 in CLR
23:19 68.9 °F 53.1 °F 30 in NE 5.4 mph 6.9 mph 57% 0 in CLR
23:24 68.7 °F 52.9 °F 30 in NNE 5.4 mph 8.1 mph 57% 0 in CLR
23:29 68.5 °F 52.7 °F 30 in NE 5.9 mph 6.9 mph 57% 0 in CLR
23:34 68.4 °F 53.1 °F 30.1 in NE 5.9 mph 8.1 mph 58% 0 in CLR
23:39 68.2 °F 52.9 °F 30.1 in NNE 5.9 mph 9.2 mph 58% 0 in CLR
23:44 68 °F 53.1 °F 30.1 in ENE 5.9 mph 8.1 mph 59% 0 in CLR
23:49 67.8 °F 53.4 °F 30.1 in NNE 5.4 mph 8.1 mph 60% 0 in CLR
23:54 67.6 °F 53.2 °F 30.1 in NNE 5.4 mph 8.1 mph 60% 0 in CLR
23:59 67.5 °F 53.4 °F 30.1 in NNE 5.4 mph 6.2 mph 61% 0 in CLR
Murcia-Puente Tocinos, España
Compliments of Weather Underground - 2.75 mb

La estación de MeteoMurcia.com, publica sus datos en los siguientes proyectos:

Weather Underground PWS IMURCIAP2 Meteoclimatic www.awekas.at

W3Counter
Web Analytics